星链-5338 (STARLINK-5338 )

导读 | 星芒AI

STARLINK-5338 是 SpaceX Starlink 项目中的一颗低轨通信卫星,旨在为全球用户提供高速互联网服务。该卫星属于 Starlink 群体中的一代卫星,运行在约 550 公里的轨道高度,具备先进的相控阵天线和激光通信技术,以提升网络效率和覆盖范围。作为 SpaceX 扩展全球宽带网络计划的一部分,STARLINK-5338 有助于改善偏远地区的网络接入,同时支持实时通信和低延迟应用。

基本信息
目录编号:
55286
目录名称:
STARLINK-5338
国际标识:
2023-010T
轨道中心:
EARTH
卫星名称:
星链-5338
卫星全名:
星链-5338 (STARLINK-5338 )
卫星状态:
在轨 (已飞行1067 天)
发射日期:
2023-01-19 UTC
国别 :
美国 (US)
星等 :
--
轨道信息
数据来源 国际轨道数据 AOE轨道数据
星历时间 2025-12-21T08:28:14+0800
12小时前
查看轨道信息
2025-12-17T11:00:00+0800
4天前
查看轨道信息
半长轴 6950.202km 6950.184km
偏心率 0.0002584 0.0002799
轨道倾角 69.998° 69.998°
近地点辐角 271.121° 277.541°
升交点赤经 222.869° 232.688°
平近点角 88.966° 321.068°
近地点 570.269km 570.103km
远地点 573.861km 573.995km
周期 96.107分钟 96.107分钟
每日圈数 14.983271 14.983329
详细信息
固有亮度:
5
最大亮度:
2.5
卫星平台:
Starlink v1.5
覆盖范围:
全球
运营商:
太空探索技术公司
运营商所在国:
美国
制造商(研发单位):
太空探索技术公司
制造商所在国:
美国
使用方式:
暂无
卫星简介
星链(Starlink)计划是由太空探索技术公司(SpaceX)提出的一个巨型低轨卫星互联网星座项目,计划在2019年至2024年间在太空搭建由约1.2万颗卫星组成的“星链”网络,其中1584颗将部署在地球上空550千米处的近地轨道,并从2020年开始工作。该卫星仍在工作。
2D轨道图
3D轨道图
轨道高度分析图
轨道倾角分析图
轨道综合分析图
查看轨道综合分析图